Location: Gugi
(45.4667°N, 11.1000°E)
Time: 08:44:36
(UTC+00:00)

Cosmos 1356 Rocket - Pass Details

Date: 17 November 2019
Orbit: 544 x 598 km, 81.2° (Epoch: 06 December)

Event Time Altitude Azimuth Distance (km) Brightness Sun altitude
Rises 16:36:47 0° 181° (S) 2,760 7.2 -9.4°
Reaches altitude 10° 16:38:57 10° 178° (S) 1,876 6.2 -9.8°
Maximum altitude 16:43:03 64° 98° (E) 647 3.4 -10.5°
Drops below altitude 10° 16:47:16 10° 17° (NNE) 1,923 5.8 -11.2°
Sets 16:49:30 0° 14° (NNE) 2,836 6.7 -11.6°
